Location: Burleson Fire Department Station 2
(32.5391°N, 97.3075°W)
Time: 01:01:20
(UTC+00:00)

NOAA 15 - Pass Details

Date: 19 December 2025
Orbit: 793 x 810 km, 98.5° (Epoch: 20 January)

Event Time Altitude Azimuth Distance (km) Brightness Sun altitude
Rises 12:21:43 0° 40° (NE) 3,297 8.1 -13.3°
Reaches altitude 10° 12:25:57 10° 74° (ENE) 2,360 7.9 -12.4°
Maximum altitude 12:27:34 11° 92° (E) 2,262 8.2 -12.1°
Drops below altitude 10° 12:29:11 10° 110° (ESE) 2,356 8.6 -11.8°
Sets 12:33:22 0° 144° (SE) 3,279 8.8 -11.0°
